Location: Ash Swamp
(41.5170°N, 74.6157°W)
Time: 02:06:53
(UTC+00:00)

CZ-2C R/B - Pass Details

Date: 14 July 2020
Orbit: 640 x 704 km, 98.4° (Epoch: 14 August)

Event Time Altitude Azimuth Distance (km) Brightness Sun altitude
Rises 00:51:30 0° 17° (NNE) 3,104 7.4 -4.0°
Reaches altitude 10° 00:53:49 10° 21° (NNE) 2,181 6.5 -4.3°
Maximum altitude 00:58:32 57° 100° (E) 824 3.9 -5.1°
Drops below altitude 10° 01:03:11 10° 180° (S) 2,150 6.0 -5.8°
Sets 01:05:26 0° 184° (S) 3,055 6.8 -6.1°
